Regional Weather Roundup
Issued by NWS

Home | Current Version | Previous Version | Graphics & Text | Print | Product List | Glossary On
Versions: 1 2 3 4 5 6 7 8 9 10 11 12 13 14 15 16 17 18 19 20 21 22 23 24 25 26 27 28 29 30 31 32 33 34 35 36 37 38 39 40 41 42 43 44 45 46 47 48 49 50
000
ASUS43 KLMK 172202
RWRKY
KENTUCKY REGIONAL WEATHER ROUNDUP
NATIONAL WEATHER SERVICE LOUISVILLE KY
600 PM EDT THU APR 17 2014

NOTE "FAIR" INDICATES FEW OR NO CLOUDS BELOW 12,000 FEET
WITH NO SIGNIFICANT WEATHER AND/OR OBSTRUCTIONS TO VISIBILITY.

KYZ001>023-026-027-061>063-070>075-172300-
WESTERN AND SOUTH CENTRAL KENTUCKY

CITY           SKY/WX    TMP DP  RH WIND       PRES   REMARKS
PADUCAH        MOSUNNY   69  39  33 SW7       30.23S
HENDERSON      SUNNY     68  39  34 S9        30.23S
OWENSBORO      SUNNY     67  40  37 S10       30.25F
HOPKINSVILLE   MOSUNNY   68  36  30 NE5       30.25R
BOWLING GREEN  SUNNY     67  31  26 S12       30.28R
GLASGOW        NOT AVBL
$$

KYZ024-025-028>034-038-045-046-053-172300-
NORTH CENTRAL KENTUCKY

CITY           SKY/WX    TMP DP  RH WIND       PRES   REMARKS
LOUISVILLE/SDF PTSUNNY   68  32  26 SE5       30.26R
LOUISVILLE/LOU SUNNY     69  33  26 VRB5      30.26S
FORT KNOX      NOT AVBL
$$

KYZ035>037-039>044-047>052-055>060-089>105-172300-
NORTHEAST KENTUCKY

CITY           SKY/WX    TMP DP  RH WIND       PRES   REMARKS
LEXINGTON      SUNNY     67  33  28 SE7       30.27F
COVINGTON      PTSUNNY   66  32  28 S7        30.26F
FRANKFORT      SUNNY     67  35  30 VRB6      30.26F
$$

KYZ054-064>069-076>088-106>120-172300-
SOUTHEAST KENTUCKY

CITY           SKY/WX    TMP DP  RH WIND       PRES   REMARKS
JACKSON        SUNNY     69  18  14 VRB5      30.27F
LONDON         SUNNY     70  24  17 S5        30.26F
SOMERSET       NOT AVBL
MIDDLESBORO    NOT AVBL
MONTICELLO     CLEAR    N/A N/A N/A S8        30.27S
$$




USA.gov is the U.S. government's official web portal to all federal, state and local government web resources and services.